Change the Weather History Date:

Sunday, October 14, 2012

  Actual Average Record
Temperature  
Mean Temperature 36 °F -  
Max Temperature 44 °F 49 °F 66 °F (2001)
Min Temperature 27 °F 31 °F 27 °F (2012)
Degree Days  
Heating Degree Days 30    
Moisture  
Dew Point 28 °F    
Average Humidity 85    
Maximum Humidity 93    
Minimum Humidity 80    
Precipitation  
Precipitation 0.12 in 0.13 in - ()
Sea Level Pressure  
Sea Level Pressure 30.12 in    
Wind  
Wind Speed 5 mph ()    
Max Wind Speed 8 mph    
Max Gust Speed 44 mph    
Visibility 4.8 miles    
Events Rain    
Averages and records for this station are not official NWS values.
T = Trace of Precipitation, MM = Missing Value Source: Averaged Metar Reports

Daily Weather History Graph

Daily Weather History Graph

Search for Another Location

Airport or City:

Trip Planner

Search our weather history database for the weather conditions in past years. The results will help you decide how hot, cold, wet, or windy it might be!

Date:

Astronomy

Oct. 14, 2012 Rise Set
Actual Time 7:42 AM ADT 6:41 PM ADT
Civil Twilight 7:12 AM ADT 7:11 PM ADT
Nautical Twilight 6:37 AM ADT 7:45 PM ADT
Astronomical Twilight 6:02 AM ADT 8:20 PM ADT
Moon 6:35 AM ADT (10/14) 5:58 PM ADT (10/14)
Length of Visible Light 11h 59m
Length of Day
10h 59m
Waning Crescent, 1% of the Moon is Illuminated
Oct 14
Waning Crescent
Oct 15
New
Oct 22
First Quarter
Oct 29
Full
Nov 6
Last Quarter

Hourly Weather History & Observations

Time (ADT) Temp. Windchill Dew Point Humidity Pressure Visibility Wind Dir Wind Speed Gust Speed Precip Events Conditions
12:00 AM 30.2 °F - 24.8 °F 80% 30.29 in 9.0 mi Variable 2.3 mph - N/A   Overcast
1:00 AM 30.2 °F 25.4 °F 24.8 °F 80% 30.28 in 9.0 mi South 4.6 mph - N/A   Overcast
2:00 AM 30.2 °F 26.7 °F 26.6 °F 86% 30.29 in 9.0 mi SW 3.5 mph - N/A   Mostly Cloudy
3:00 AM 30 °F - 27 °F 85% 30.28 in 10 mi SSW 4.6 mph - -   Overcast
3:00 AM 30.2 °F 25.4 °F 26.6 °F 86% 30.28 in 9.0 mi SSW 4.6 mph - N/A   Overcast
4:00 AM 32.0 °F 27.5 °F 28.4 °F 87% 30.28 in 9.0 mi South 4.6 mph - N/A   Overcast
5:00 AM 32.0 °F - 28.4 °F 87% 30.28 in 9.0 mi SSW 2.3 mph - N/A   Overcast
6:00 AM 33.8 °F 27.7 °F 28.4 °F 81% 30.27 in 9.0 mi South 6.9 mph - N/A   Overcast
7:00 AM 33.8 °F - 28.4 °F 81% 30.26 in 9.0 mi Variable 2.3 mph - N/A   Overcast
8:00 AM 33.8 °F 30.8 °F 30.2 °F 87% 30.26 in 9.0 mi SSW 3.5 mph - N/A Rain Light Rain
9:00 AM 35 °F - 33 °F 92% 30.25 in 10 mi South 4.6 mph - - Rain Light Rain
9:00 AM 35.6 °F 31.7 °F 33.8 °F 93% 30.25 in 9.0 mi South 4.6 mph - N/A Rain Light Rain
10:00 AM 37.4 °F 34.9 °F - N/A% 30.24 in 9.0 mi South 3.5 mph - N/A Rain Light Rain
10:10 AM 37.4 °F 34.9 °F - N/A% 30.24 in 9.0 mi South 3.5 mph - N/A Rain Light Rain
10:32 AM 37.4 °F 32.8 °F - N/A% 30.23 in 6.0 mi South 5.8 mph - N/A Rain Light Rain
10:48 AM 37.4 °F 31.4 °F - N/A% 30.22 in 9.0 mi SSE 8.1 mph - N/A Rain Light Rain
10:50 AM 37.4 °F 31.4 °F - N/A% 30.22 in 9.0 mi SSE 8.1 mph - N/A Rain Light Rain
10:52 AM 37.4 °F 31.4 °F - N/A% 30.21 in 9.0 mi SSE 8.1 mph - N/A Rain Light Rain
11:00 AM 37.4 °F 32.8 °F - N/A% 30.22 in 9.0 mi SSE 5.8 mph - N/A Rain Light Rain
11:47 AM 39.2 °F 37.0 °F - N/A% 30.19 in 9.0 mi SE 3.5 mph - N/A Rain Light Rain
11:58 AM 39.2 °F 35.9 °F - N/A% 30.19 in 9.0 mi SE 4.6 mph - N/A Rain Light Rain
12:00 PM 39.2 °F 35.9 °F - N/A% 30.19 in 9.0 mi SE 4.6 mph - N/A Rain Light Rain
12:05 PM 39.2 °F 35.0 °F - N/A% 30.18 in 9.0 mi SE 5.8 mph - N/A Rain Light Rain
12:11 PM 39.2 °F 35.0 °F - N/A% 30.18 in 9.0 mi SE 5.8 mph - N/A Rain Light Rain
12:14 PM 39.2 °F 35.9 °F - N/A% 30.18 in 9.0 mi SE 4.6 mph - N/A Rain Light Rain
12:33 PM 39.2 °F 35.9 °F - N/A% 30.18 in 5.0 mi ESE 4.6 mph - N/A Rain Light Rain
1:00 PM 41.0 °F 38.0 °F - N/A% 30.16 in 5.0 mi East 4.6 mph - N/A Rain Light Rain
1:03 PM 41.0 °F 38.0 °F - N/A% 30.16 in 5.0 mi East 4.6 mph - N/A Rain Light Rain
1:14 PM 41.0 °F 38.0 °F - N/A% 30.15 in 6.0 mi ENE 4.6 mph - N/A Rain Light Rain
1:25 PM 41.0 °F 38.0 °F - N/A% 30.14 in 5.0 mi East 4.6 mph - N/A Rain Light Rain
1:47 PM 41.0 °F 38.0 °F - N/A% 30.13 in 2.2 mi ENE 4.6 mph - N/A Rain Light Rain
1:48 PM 41.0 °F 38.0 °F - N/A% 30.13 in 2.2 mi ENE 4.6 mph - N/A Rain Light Rain
1:50 PM 41.0 °F 37.1 °F - N/A% 30.13 in 2.0 mi ENE 5.8 mph - N/A Rain Light Rain
1:53 PM 41.0 °F 37.1 °F - N/A% 30.13 in 2.0 mi NE 5.8 mph - N/A Rain Light Rain
2:00 PM 41.0 °F 37.1 °F - N/A% 30.12 in 2.5 mi NE 5.8 mph - N/A Rain Light Rain
2:19 PM 41.0 °F 37.1 °F - N/A% 30.12 in 1.8 mi ENE 5.8 mph - N/A Rain Light Rain
2:47 PM 41.0 °F 37.1 °F - N/A% 30.10 in 2.0 mi NE 5.8 mph - N/A Rain Light Rain
3:00 PM 42 °F - - % 30.10 in 2 mi NE 4.6 mph - -   Overcast
3:00 PM 42.8 °F 40.1 °F - N/A% 30.09 in 2.0 mi ENE 4.6 mph - N/A Rain Light Rain
3:05 PM 42.8 °F 40.1 °F - N/A% 30.09 in 1.8 mi ENE 4.6 mph - N/A Rain Light Rain
3:31 PM 42.8 °F 40.1 °F - N/A% 30.08 in 2.0 mi ENE 4.6 mph - N/A Rain Light Rain
4:00 PM 42.8 °F 39.3 °F - N/A% 30.07 in 2.5 mi ENE 5.8 mph - N/A Rain Light Rain
4:05 PM 44.6 °F 42.2 °F - N/A% 30.06 in 1.8 mi ENE 4.6 mph - N/A Rain Light Rain
4:32 PM 44.6 °F - - N/A% 30.05 in 2.0 mi ENE 2.3 mph - N/A Rain Light Rain
4:44 PM 44.6 °F 42.2 °F - N/A% 30.04 in 1.8 mi ENE 4.6 mph 19.6 mph N/A Rain Light Rain
4:45 PM 44.6 °F 42.2 °F - N/A% 30.04 in 1.8 mi ENE 4.6 mph 19.6 mph N/A Rain Light Rain
4:52 PM 44.6 °F 41.4 °F - N/A% 30.04 in 2.0 mi ENE 5.8 mph - N/A Rain Light Rain
4:57 PM 44.6 °F 41.4 °F - N/A% 30.04 in 2.5 mi ENE 5.8 mph - N/A Rain Light Rain
5:00 PM 44.6 °F 40.7 °F - N/A% 30.04 in 2.5 mi NE 6.9 mph - N/A Rain Light Rain
5:39 PM 44.6 °F 40.7 °F - N/A% 30.03 in 2.5 mi ENE 6.9 mph - N/A   Overcast
5:40 PM 44.6 °F 40.7 °F - N/A% 30.03 in 3.0 mi NE 6.9 mph - N/A   Overcast
6:00 PM 44.6 °F 40.2 °F - N/A% 30.02 in 3.0 mi NE 8.1 mph 43.7 mph N/A   Overcast
7:00 PM 42.8 °F 39.3 °F - N/A% 30.03 in 3.0 mi North 5.8 mph - N/A   Overcast
7:22 PM 42.8 °F 38.0 °F - N/A% 30.03 in 6.0 mi NNE 8.1 mph - N/A   Haze
7:56 PM 42.8 °F 38.0 °F - N/A% 30.03 in 5.0 mi North 8.1 mph - N/A   Haze
8:00 PM 42.8 °F 38.0 °F - N/A% 30.03 in 4.0 mi North 8.1 mph - N/A   Haze
9:00 PM 41 °F - - % 30.03 in 3 mi North 6.9 mph - -   Overcast
9:00 PM 41.0 °F 36.4 °F - N/A% 30.03 in 3.0 mi North 6.9 mph - N/A   Overcast
9:06 PM 41.0 °F 36.4 °F - N/A% 30.03 in 2.5 mi North 6.9 mph - N/A   Overcast
9:28 PM 41.0 °F 38.0 °F - N/A% 30.03 in 1.8 mi NW 4.6 mph - N/A   Overcast
10:00 PM 41.0 °F 37.1 °F - N/A% 30.03 in 1.8 mi North 5.8 mph - N/A   Overcast
10:05 PM 41.0 °F 38.0 °F - N/A% 30.02 in 1.8 mi NNW 4.6 mph - N/A Rain Light Rain
10:14 PM 41.0 °F 36.4 °F - N/A% 30.02 in 2.0 mi North 6.9 mph - N/A Rain Light Rain
10:31 PM 39.2 °F 35.9 °F - N/A% 30.03 in 1.8 mi NW 4.6 mph - N/A Rain Light Rain
10:43 PM 39.2 °F 35.0 °F - N/A% 30.02 in 1.5 mi NNW 5.8 mph - N/A   Overcast
10:53 PM 39.2 °F 35.9 °F - N/A% 30.02 in 1.5 mi NNW 4.6 mph - N/A Rain Light Rain
11:00 PM 39.2 °F 35.0 °F - N/A% 30.02 in 1.5 mi NW 5.8 mph - N/A Rain Light Rain
11:03 PM 39.2 °F 35.9 °F - N/A% 30.02 in 1.5 mi NW 4.6 mph - N/A   Overcast
11:11 PM 39.2 °F 35.9 °F - N/A% 30.02 in 1.8 mi NNW 4.6 mph - N/A Rain Light Rain
11:17 PM 39.2 °F 35.9 °F - N/A% 30.02 in 2.0 mi NNW 4.6 mph - N/A Rain Light Rain
11:51 PM 39.2 °F 37.0 °F - N/A% 30.02 in 3.0 mi WNW 3.5 mph - N/A Rain Light Rain
11:59 PM 39.2 °F 37.0 °F - N/A% 30.01 in 2.5 mi NW 3.5 mph - N/A Rain Light Rain